Back to catalog

STARLINK-4030

AliveCommunicationsVLEO
NORAD 52698·PAYLOAD·🇺🇸 United States

Launched May 18, 2022 from Cape Canaveral Space Force Station

Loading…

Next Passes (next 24 hours)

TLE

FreshSource: CelesTrak SupGP

Epoch: Sep 14, 2026, 14:36 UTC

1 52698C 22053AU  26257.60881944 -.00586810  00000+0 -17160-1 0  2576
2 52698  53.1603  15.0746 0001245  82.9982 306.7268 15.35007038    18

Track STARLINK-4030 in real time with AllMySat

Download on the App Store